Location: Eaton
(41.3139°N, 82.0207°W)
Time: 02:08:57
(UTC+00:00)

Cosmos 1025 Rocket - Pass Details

Date: 17 June 2021
Orbit: 593 x 619 km, 82.5° (Epoch: 02 August)

Event Time Altitude Azimuth Distance (km) Brightness Sun altitude
Exits shadow 03:37:22 23° 219° (SW) 1,337 4.5 -20.3°
Maximum altitude 03:39:49 45° 282° (WNW) 839 3.9 -20.5°
Drops below altitude 10° 03:44:03 10° 355° (N) 1,982 6.6 -20.9°
Sets 03:46:21 0° 2° (N) 2,887 7.6 -21.1°
